When you browse on this site, cookies collect data to enhance your experience and personalize the content and advertising you see.
Visit our Privacy Policy to learn more. By continuing to use the site, you agree to this use of cookies and data.
  • In Schweiz
  • Länderverzeichnis
  • Für 7 Tage
  • Wassertemperatur
  • Satellitenkarten
  • Wetterkarte
  • Widgets
  • user-avatar
    Anmelden

    Stündliche Wetter Victoria

    Heute, 22 März, Freitag

    Zeit Temperatur Niederschläge Wind Luftdruck Luftfeuchtigkeit
    00:00 +22°C° 0.1 mm 3 m/S 749 mmHg 66%
    01:00 +22°C° 0.1 mm 3 m/S 749 mmHg 68%
    02:00 +22°C° 0.4 mm 3 m/S 749 mmHg 69%
    03:00 +21°C° 0.4 mm 3 m/S 748 mmHg 70%
    04:00 +21°C° 0.4 mm 3 m/S 748 mmHg 71%
    05:00 +21°C° 0.5 mm 4 m/S 749 mmHg 72%
    06:00 +21°C° 0.5 mm 4 m/S 749 mmHg 73%
    07:00 +21°C° 0.5 mm 4 m/S 749 mmHg 75%
    08:00 +23°C° 0.1 mm 5 m/S 749 mmHg 69%
    09:00 +25°C° 0.1 mm 5 m/S 749 mmHg 64%
    10:00 +27°C° 0.1 mm 6 m/S 749 mmHg 59%
    11:00 +28°C° 0 mm 5 m/S 749 mmHg 53%
    12:00 +30°C° 0 mm 4 m/S 749 mmHg 47%
    13:00 +33°C° 0 mm 4 m/S 748 mmHg 41%
    14:00 +33°C° 0 mm 3 m/S 748 mmHg 38%
    15:00 +34°C° 0 mm 3 m/S 747 mmHg 35%
    16:00 +34°C° 0 mm 2 m/S 746 mmHg 32%
    17:00 +33°C° 0 mm 3 m/S 746 mmHg 37%
    18:00 +30°C° 0 mm 3 m/S 746 mmHg 42%
    19:00 +29°C° 0 mm 4 m/S 746 mmHg 47%
    20:00 +28°C° 0 mm 4 m/S 746 mmHg 49%
    21:00 +27°C° 0 mm 4 m/S 747 mmHg 51%
    22:00 +26°C° 0 mm 4 m/S 747 mmHg 53%
    23:00 +25°C° 0 mm 5 m/S 747 mmHg 55%

    Morgen, 23 März, Samstag

    Zeit Temperatur Niederschläge Wind Luftdruck Luftfeuchtigkeit
    00:00 +24°C° 0 mm 6 m/S 746 mmHg 57%
    01:00 +23°C° 0 mm 6 m/S 746 mmHg 58%
    02:00 +23°C° 0 mm 6 m/S 746 mmHg 60%
    03:00 +23°C° 0 mm 6 m/S 746 mmHg 62%
    04:00 +22°C° 0 mm 6 m/S 745 mmHg 63%
    05:00 +22°C° 0.2 mm 6 m/S 745 mmHg 65%
    06:00 +22°C° 0.2 mm 6 m/S 745 mmHg 67%
    07:00 +22°C° 0.2 mm 6 m/S 745 mmHg 68%
    08:00 +23°C° 0 mm 7 m/S 745 mmHg 63%
    09:00 +24°C° 0 mm 7 m/S 745 mmHg 57%
    10:00 +27°C° 0 mm 8 m/S 744 mmHg 51%
    11:00 +29°C° 0 mm 8 m/S 744 mmHg 43%
    12:00 +33°C° 0 mm 7 m/S 743 mmHg 36%
    13:00 +35°C° 0 mm 7 m/S 743 mmHg 28%
    14:00 +36°C° 0 mm 6 m/S 742 mmHg 26%
    15:00 +36°C° 0 mm 6 m/S 742 mmHg 24%
    16:00 +37°C° 0 mm 5 m/S 741 mmHg 22%
    17:00 +35°C° 0 mm 5 m/S 742 mmHg 25%
    18:00 +33°C° 0 mm 5 m/S 742 mmHg 27%
    19:00 +30°C° 0 mm 5 m/S 743 mmHg 29%
    20:00 +29°C° 0 mm 5 m/S 744 mmHg 33%
    21:00 +28°C° 0 mm 4 m/S 745 mmHg 36%
    22:00 +26°C° 0 mm 4 m/S 745 mmHg 40%
    23:00 +25°C° 0 mm 3 m/S 746 mmHg 49%

    übermorgen, 24 März, Sonntag

    Zeit Temperatur Niederschläge Wind Luftdruck Luftfeuchtigkeit
    00:00 +24°C° 0 mm 3 m/S 746 mmHg 58%
    01:00 +22°C° 0 mm 3 m/S 746 mmHg 68%
    02:00 +22°C° 0 mm 3 m/S 746 mmHg 68%
    03:00 +21°C° 0 mm 2 m/S 746 mmHg 69%
    04:00 +21°C° 0 mm 2 m/S 746 mmHg 69%
    05:00 +21°C° 0 mm 2 m/S 746 mmHg 69%
    06:00 +22°C° 0 mm 1 m/S 747 mmHg 68%
    07:00 +22°C° 0 mm 1 m/S 747 mmHg 67%
    08:00 +24°C° 0 mm 2 m/S 747 mmHg 60%
    09:00 +25°C° 0 mm 2 m/S 747 mmHg 52%
    10:00 +27°C° 0 mm 3 m/S 747 mmHg 45%
    11:00 +27°C° 0 mm 4 m/S 747 mmHg 45%
    12:00 +28°C° 0 mm 5 m/S 746 mmHg 45%
    13:00 +28°C° 0 mm 6 m/S 746 mmHg 45%
    14:00 +26°C° 0.3 mm 6 m/S 745 mmHg 57%
    15:00 +23°C° 0.3 mm 6 m/S 745 mmHg 68%
    16:00 +21°C° 0.3 mm 6 m/S 745 mmHg 80%
    17:00 +21°C° 0.6 mm 5 m/S 745 mmHg 83%
    18:00 +21°C° 0.6 mm 5 m/S 745 mmHg 85%
    19:00 +20°C° 0.6 mm 4 m/S 745 mmHg 87%
    20:00 +20°C° 1.5 mm 4 m/S 745 mmHg 88%
    21:00 +20°C° 1.5 mm 4 m/S 745 mmHg 89%
    22:00 +20°C° 1.5 mm 5 m/S 745 mmHg 90%
    23:00 +20°C° 0.6 mm 6 m/S 744 mmHg 88%

    25 März, Montag

    Zeit Temperatur Niederschläge Wind Luftdruck Luftfeuchtigkeit
    00:00 +20°C° 0.6 mm 7 m/S 743 mmHg 86%
    01:00 +20°C° 0.6 mm 8 m/S 742 mmHg 85%
    02:00 +20°C° 0.5 mm 7 m/S 742 mmHg 85%
    03:00 +20°C° 0.5 mm 6 m/S 741 mmHg 84%
    04:00 +21°C° 0.5 mm 6 m/S 741 mmHg 84%
    05:00 +21°C° 0.8 mm 6 m/S 741 mmHg 85%
    06:00 +21°C° 0.8 mm 6 m/S 741 mmHg 85%
    07:00 +21°C° 0.8 mm 6 m/S 741 mmHg 86%
    08:00 +20°C° 0.2 mm 7 m/S 742 mmHg 78%
    09:00 +20°C° 0.2 mm 7 m/S 743 mmHg 70%
    10:00 +20°C° 0.2 mm 8 m/S 743 mmHg 62%
    11:00 +20°C° 0 mm 8 m/S 743 mmHg 55%
    12:00 +21°C° 0 mm 8 m/S 744 mmHg 47%
    13:00 +21°C° 0 mm 8 m/S 744 mmHg 40%
    14:00 +20°C° 0 mm 8 m/S 744 mmHg 40%
    15:00 +18°C° 0 mm 8 m/S 744 mmHg 40%
    16:00 +18°C° 0 mm 8 m/S 745 mmHg 40%
    17:00 +17°C° 0 mm 7 m/S 746 mmHg 41%
    18:00 +16°C° 0 mm 5 m/S 747 mmHg 43%
    19:00 +15°C° 0 mm 4 m/S 748 mmHg 44%
    20:00 +14°C° 0 mm 4 m/S 748 mmHg 45%
    21:00 +13°C° 0 mm 3 m/S 749 mmHg 47%
    22:00 +12°C° 0 mm 3 m/S 750 mmHg 48%
    23:00 +12°C° 0 mm 3 m/S 750 mmHg 50%

    26 März, Dienstag

    Zeit Temperatur Niederschläge Wind Luftdruck Luftfeuchtigkeit
    00:00 +12°C° 0 mm 2 m/S 750 mmHg 51%
    01:00 +10°C° 0 mm 2 m/S 750 mmHg 53%
    02:00 +10°C° 0 mm 2 m/S 750 mmHg 55%
    03:00 +10°C° 0 mm 2 m/S 750 mmHg 57%
    04:00 +10°C° 0 mm 2 m/S 750 mmHg 59%
    05:00 +9°C° 0 mm 2 m/S 751 mmHg 62%
    06:00 +9°C° 0 mm 2 m/S 751 mmHg 65%
    07:00 +9°C° 0 mm 2 m/S 752 mmHg 68%
    08:00 +12°C° 0 mm 2 m/S 752 mmHg 64%
    09:00 +14°C° 0 mm 3 m/S 752 mmHg 59%
    10:00 +17°C° 0 mm 4 m/S 752 mmHg 54%
    11:00 +17°C° 0 mm 4 m/S 752 mmHg 53%
    12:00 +18°C° 0 mm 4 m/S 752 mmHg 51%
    13:00 +17°C° 0 mm 5 m/S 752 mmHg 50%
    14:00 +17°C° 0 mm 5 m/S 752 mmHg 47%
    15:00 +19°C° 0 mm 6 m/S 752 mmHg 45%
    16:00 +19°C° 0 mm 6 m/S 752 mmHg 43%
    17:00 +17°C° 0 mm 6 m/S 753 mmHg 47%
    18:00 +15°C° 0 mm 5 m/S 754 mmHg 51%
    19:00 +14°C° 0 mm 5 m/S 754 mmHg 54%
    20:00 +13°C° 0 mm 5 m/S 755 mmHg 58%
    21:00 +12°C° 0 mm 4 m/S 756 mmHg 62%
    22:00 +12°C° 0 mm 4 m/S 756 mmHg 66%
    23:00 +10°C° 0 mm 5 m/S 756 mmHg 67%

    27 März, Mittwoch

    Zeit Temperatur Niederschläge Wind Luftdruck Luftfeuchtigkeit
    00:00 +10°C° 0 mm 5 m/S 756 mmHg 68%
    01:00 +10°C° 0 mm 5 m/S 756 mmHg 69%
    02:00 +10°C° 0 mm 4 m/S 756 mmHg 71%
    03:00 +10°C° 0 mm 4 m/S 756 mmHg 73%
    04:00 +9°C° 0 mm 3 m/S 756 mmHg 75%
    05:00 +9°C° 0 mm 3 m/S 757 mmHg 76%
    06:00 +9°C° 0 mm 3 m/S 757 mmHg 77%
    07:00 +8°C° 0 mm 2 m/S 757 mmHg 79%
    08:00 +12°C° 0 mm 2 m/S 757 mmHg 67%
    09:00 +15°C° 0 mm 2 m/S 758 mmHg 56%
    10:00 +17°C° 0 mm 2 m/S 758 mmHg 45%
    11:00 +20°C° 0 mm 1 m/S 757 mmHg 43%
    12:00 +22°C° 0 mm 1 m/S 757 mmHg 40%
    13:00 +22°C° 0 mm 0 m/S 756 mmHg 37%
    14:00 +22°C° 0 mm 0 m/S 756 mmHg 35%
    15:00 +24°C° 0 mm 1 m/S 755 mmHg 34%
    16:00 +24°C° 0 mm 1 m/S 755 mmHg 32%
    17:00 +23°C° 0 mm 1 m/S 755 mmHg 35%
    18:00 +21°C° 0 mm 1 m/S 756 mmHg 38%
    19:00 +20°C° 0 mm 1 m/S 756 mmHg 42%
    20:00 +19°C° 0 mm 1 m/S 756 mmHg 45%
    21:00 +17°C° 0 mm 2 m/S 756 mmHg 49%
    22:00 +16°C° 0 mm 2 m/S 757 mmHg 52%
    23:00 +16°C° 0 mm 2 m/S 757 mmHg 55%
    Mehr zeigen